Weather in Muratpasa

Turkey     36°53′48″N   30°42′16″E
temp.,
°C
wind,
m/s
gust,
m/s
humid.,
%
clouds,
%
prec.,
mm/h
press.,
hPa
HPBL,
m
12 april, mon
mon1200:00+9nnw35450 0.0 1020130
03:00+8nnw485060 0.0 1020196
06:00+8nnw4950100 0.0 1019255
09:00+12nnw573920 0.0 1020816
12:00+17nnw44287 0.0 10191899
15:00+19sw1424100 0.0 10182510
18:00+15se443959 0.0 1019833
21:00+12ene125227 0.0 1021208
13 april, tue
tue1300:00+10nnw22565 0.0 102157
03:00+10nnw22585 0.0 102033
06:00+9nnw22595 0.0 102020
09:00+14nnw11455 0.0 1020310
12:00+19s32361 0.0 10191322
15:00+18s65420 0.0 10191075
18:00+17sse445160 0.0 1019914
21:00+13ne126953 0.0 1021201
14 april, wed
wed1400:00+11nnw22740 0.0 102065
03:00+10nnw227511 0.0 102043
06:00+10nnw227378 0.0 101947
09:00+14nne1156100 0.0 1020298
12:00+18sse4449100 0.0 10191085
15:00+18sse4456100 0.0 10191116
18:00+17sse4464100 0.0 10181044
21:00+14ese127697 0.1 1018400
15 april, thu
thu1500:00+14ne1276100 0.0 1018259
03:00+13n127582 0.0 101784
06:00+11nnw11776 0.0 101714
09:00+16nne11560 0.0 1017469
12:00+19sse32440 0.0 10171373
15:00+20sse54471 0.0 10161221
18:00+18sse33571 0.0 1016926
21:00+14wnw11716 0.0 1016109
16 april, fri
fri1600:00+13nnw2275100 0.0 101659
03:00+13nnw2272100 0.0 101528
06:00+12nnw2270100 0.0 101524
09:00+17nnw0151100 0.0 1015270
12:00+21sse3334100 0.0 10161122
15:00+21sse4335100 0.0 10151082
18:00+19sse224447 0.0 1015558
21:00+15n116225 0.0 101625